La Porte, IN

8:50 PM CDT on October 22, 2017 (GMT -0500)
La Porte Municipal

Weather History for KPPO - October, 2012

Change the Weather History Date:

Saturday, October 6, 2012

  Actual Average (KSBN) Record (KSBN)
Temperature  
Mean Temperature 39 °F -  
Max Temperature 47 °F 64 °F 92 °F (1963)
Min Temperature 32 °F 46 °F 25 °F (1935)
Degree Days  
Heating Degree Days 26    
Moisture  
Dew Point 30 °F    
Average Humidity 66    
Maximum Humidity 84    
Minimum Humidity 50    
Precipitation  
Precipitation 0.00 in - - ()
Sea Level Pressure  
Sea Level Pressure 30.11 in    
Wind  
Wind Speed 7 mph ()    
Max Wind Speed 16 mph    
Max Gust Speed 24 mph    
Visibility 10.0 miles    
Events      
Averages and records for this station are not official NWS values.
T = Trace of Precipitation, MM = Missing Value Source: Averaged Metar Reports

Daily Weather History Graph

Daily Weather History Graph

Search for Another Location

Airport or City:

Trip Planner

Search our weather history database for the weather conditions in past years. The results will help you decide how hot, cold, wet, or windy it might be!

Date:

Astronomy

Oct. 06, 2012 Rise Set
Actual Time 6:49 AM CDT 6:19 PM CDT
Civil Twilight 6:21 AM CDT 6:47 PM CDT
Nautical Twilight 5:49 AM CDT 7:19 PM CDT
Astronomical Twilight 5:17 AM CDT 7:51 PM CDT
Moon 10:31 PM CDT (10/6) 12:47 PM CDT (10/6)
Length of Visible Light 12h 25m
Length of Day
11h 29m
Waning Gibbous, 65% of the Moon is Illuminated
Oct 6
Waning Gibbous
Oct 8
Last Quarter
Oct 15
New
Oct 21
First Quarter
Oct 29
Full

Hourly Weather History & Observations

Time (CDT) Temp. Windchill Dew Point Humidity Pressure Visibility Wind Dir Wind Speed Gust Speed Precip Events Conditions
12:15 AM 42.8 °F 39.3 °F 28.9 °F 58% 30.05 in 10.0 mi WNW 5.8 mph - N/A   Clear
12:35 AM 40.8 °F 36.9 °F 29.1 °F 63% 30.04 in 10.0 mi West 5.8 mph - N/A   Clear
12:55 AM 39.2 °F 34.2 °F 29.1 °F 67% 30.05 in 10.0 mi West 6.9 mph - N/A   Clear
1:15 AM 36.9 °F 32.2 °F 28.8 °F 72% 30.05 in 10.0 mi WSW 5.8 mph - N/A   Clear
1:55 AM 36.5 °F 31.0 °F 26.8 °F 68% 30.04 in 10.0 mi West 6.9 mph - N/A   Clear
2:15 AM 36.0 °F 30.3 °F 26.6 °F 69% 30.04 in 10.0 mi West 6.9 mph - N/A   Clear
2:35 AM 35.1 °F 29.3 °F 27.1 °F 73% 30.04 in 10.0 mi WSW 6.9 mph - N/A   Clear
2:55 AM 35.1 °F 29.3 °F 27.1 °F 73% 30.04 in 10.0 mi West 6.9 mph - N/A   Clear
3:15 AM 34.2 °F 29.0 °F 27.3 °F 76% 30.04 in 10.0 mi WSW 5.8 mph - N/A   Clear
3:35 AM 33.6 °F 27.5 °F 27.5 °F 78% 30.04 in 10.0 mi WSW 6.9 mph - N/A   Clear
3:55 AM 34.2 °F 28.2 °F 27.5 °F 77% 30.04 in 10.0 mi WSW 6.9 mph - N/A   Clear
4:35 AM 32.9 °F 28.5 °F 27.5 °F 81% 30.04 in 10.0 mi WSW 4.6 mph - N/A   Clear
4:55 AM 32.4 °F 26.9 °F 27.9 °F 83% 30.04 in 10.0 mi West 5.8 mph - N/A   Clear
5:15 AM 32.9 °F 26.7 °F 28.4 °F 84% 30.05 in 10.0 mi West 6.9 mph - N/A   Scattered Clouds
5:35 AM 33.1 °F 27.7 °F 28.4 °F 83% 30.05 in 10.0 mi West 5.8 mph - N/A   Clear
5:55 AM 33.1 °F 26.9 °F 28.8 °F 84% 30.07 in 10.0 mi WSW 6.9 mph - N/A   Clear
6:15 AM 33.8 °F 26.4 °F 29.1 °F 83% 30.08 in 10.0 mi West 9.2 mph - N/A   Scattered Clouds
6:35 AM 35.1 °F 27.4 °F 29.3 °F 80% 30.08 in 10.0 mi West 10.4 mph - N/A   Scattered Clouds
6:55 AM 35.1 °F 27.9 °F 29.3 °F 80% 30.09 in 10.0 mi West 9.2 mph - N/A   Mostly Cloudy
7:15 AM 34.7 °F 27.5 °F 29.1 °F 80% 30.09 in 10.0 mi West 9.2 mph - N/A   Scattered Clouds
7:35 AM 35.1 °F 28.6 °F 29.7 °F 81% 30.09 in 10.0 mi West 8.1 mph - N/A   Scattered Clouds
7:55 AM 36.0 °F 29.6 °F 30.4 °F 80% 30.09 in 10.0 mi West 8.1 mph - N/A   Clear
8:15 AM 37.4 °F 31.4 °F 30.9 °F 77% 30.10 in 10.0 mi WSW 8.1 mph - N/A   Clear
8:35 AM 39.2 °F 33.0 °F 31.3 °F 73% 30.11 in 10.0 mi WSW 9.2 mph - N/A   Scattered Clouds
8:55 AM 39.7 °F 33.7 °F 31.3 °F 72% 30.11 in 10.0 mi West 9.2 mph - N/A   Mostly Cloudy
9:15 AM 40.5 °F 34.6 °F 32.0 °F 72% 30.11 in 10.0 mi WSW 9.2 mph - N/A   Overcast
9:35 AM 42.1 °F 37.1 °F 32.0 °F 67% 30.11 in 10.0 mi West 8.1 mph - N/A   Overcast
9:55 AM 42.1 °F 36.1 °F 32.0 °F 67% 30.12 in 10.0 mi West 10.4 mph - N/A   Overcast
10:15 AM 42.8 °F 37.5 °F 31.5 °F 64% 30.12 in 10.0 mi West 9.2 mph - N/A   Overcast
10:35 AM 43.0 °F 38.2 °F 30.0 °F 60% 30.12 in 10.0 mi WNW 8.1 mph 17.3 mph N/A   Overcast
10:55 AM 43.0 °F 35.4 °F 29.7 °F 59% 30.12 in 10.0 mi NW 16.1 mph 21.9 mph N/A   Overcast
11:15 AM 43.2 °F 37.9 °F 30.0 °F 60% 30.13 in 10.0 mi West 9.2 mph 18.4 mph N/A   Overcast
11:35 AM 43.2 °F 38.4 °F 28.9 °F 57% 30.14 in 10.0 mi WNW 8.1 mph 16.1 mph N/A   Overcast
11:55 AM 43.2 °F 37.9 °F 28.9 °F 57% 30.14 in 10.0 mi West 9.2 mph 17.3 mph N/A   Overcast
12:15 PM 43.5 °F 38.9 °F 29.1 °F 57% 30.14 in 10.0 mi WNW 8.1 mph 16.1 mph N/A   Overcast
12:35 PM 43.3 °F 39.2 °F 29.8 °F 59% 30.14 in 10.0 mi WNW 6.9 mph - N/A   Overcast
12:55 PM 44.1 °F 39.5 °F 29.8 °F 57% 30.14 in 10.0 mi WNW 8.1 mph - N/A   Overcast
1:15 PM 44.8 °F 39.9 °F 30.2 °F 57% 30.14 in 10.0 mi WNW 9.2 mph - N/A   Overcast
1:35 PM 46.0 °F 41.0 °F 29.7 °F 53% 30.13 in 10.0 mi WNW 10.4 mph 18.4 mph N/A   Overcast
1:55 PM 46.9 °F - 29.1 °F 50% 30.13 in 10.0 mi WNW 10.4 mph 17.3 mph N/A   Overcast
2:15 PM 45.3 °F 40.1 °F 29.3 °F 54% 30.13 in 10.0 mi NW 10.4 mph - N/A   Overcast
2:35 PM 45.7 °F 40.2 °F 30.4 °F 55% 30.12 in 10.0 mi NNW 11.5 mph - N/A   Overcast
2:55 PM 45.7 °F 41.5 °F 30.2 °F 55% 30.13 in 10.0 mi NNW 8.1 mph - N/A   Overcast
3:15 PM 46.2 °F 42.2 °F 29.8 °F 53% 30.12 in 10.0 mi WNW 8.1 mph 24.2 mph N/A   Overcast
3:35 PM 46.4 °F 41.5 °F 29.1 °F 51% 30.12 in 10.0 mi NW 10.4 mph 18.4 mph N/A   Overcast
3:55 PM 45.5 °F 39.6 °F 29.7 °F 54% 30.13 in 10.0 mi NW 12.7 mph 19.6 mph N/A   Overcast
4:15 PM 45.5 °F 41.8 °F 29.8 °F 54% 30.13 in 10.0 mi WNW 6.9 mph - N/A   Overcast
4:35 PM 45.0 °F 40.6 °F 30.4 °F 57% 30.13 in 10.0 mi NW 8.1 mph - N/A   Overcast
4:55 PM 44.8 °F 42.4 °F 29.8 °F 56% 30.13 in 10.0 mi WNW 4.6 mph - N/A   Overcast
5:15 PM 44.6 °F - 30.2 °F 57% 30.14 in 10.0 mi Calm Calm - N/A   Overcast
5:35 PM 44.2 °F 42.7 °F 31.1 °F 60% 30.13 in 10.0 mi West 3.5 mph - N/A   Overcast
5:55 PM 44.1 °F 42.5 °F 31.8 °F 62% 30.14 in 10.0 mi WSW 3.5 mph - N/A   Overcast
6:15 PM 43.7 °F 42.1 °F 32.4 °F 64% 30.14 in 10.0 mi SW 3.5 mph - N/A   Overcast
6:35 PM 43.2 °F - 33.3 °F 68% 30.14 in 10.0 mi Calm Calm - N/A   Overcast
6:55 PM 42.8 °F - 33.4 °F 70% 30.15 in 10.0 mi Calm Calm - N/A   Overcast
7:15 PM 42.8 °F 41.1 °F 33.1 °F 69% 30.15 in 10.0 mi WSW 3.5 mph - N/A   Overcast
7:35 PM 42.8 °F 41.1 °F 33.3 °F 69% 30.15 in 10.0 mi WSW 3.5 mph - N/A   Overcast
7:55 PM 43.0 °F 40.3 °F 32.5 °F 67% 30.15 in 10.0 mi WSW 4.6 mph - N/A   Overcast
8:15 PM 42.8 °F 40.1 °F 33.3 °F 69% 30.16 in 10.0 mi SW 4.6 mph - N/A   Overcast
8:35 PM 42.8 °F 40.1 °F 32.9 °F 68% 30.15 in 10.0 mi WSW 4.6 mph - N/A   Overcast
8:55 PM 42.8 °F 40.1 °F 32.7 °F 68% 30.15 in 10.0 mi WSW 4.6 mph - N/A   Overcast
9:15 PM 42.8 °F 40.1 °F 32.4 °F 67% 30.15 in 10.0 mi WSW 4.6 mph - N/A   Overcast
9:35 PM 42.8 °F 40.1 °F 31.8 °F 65% 30.15 in 10.0 mi West 4.6 mph - N/A   Overcast
9:55 PM 43.0 °F 38.2 °F 30.7 °F 62% 30.15 in 10.0 mi West 8.1 mph - N/A   Overcast
10:15 PM 43.2 °F 39.0 °F 28.9 °F 57% 30.15 in 10.0 mi WSW 6.9 mph - N/A   Overcast
10:35 PM 43.0 °F 38.2 °F 28.8 °F 57% 30.15 in 10.0 mi West 8.1 mph - N/A   Overcast
11:15 PM 43.0 °F 38.8 °F 28.6 °F 57% 30.15 in 10.0 mi West 6.9 mph - N/A   Overcast
11:35 PM 43.0 °F 37.7 °F 28.6 °F 57% 30.14 in 10.0 mi West 9.2 mph - N/A   Overcast
11:55 PM 42.8 °F 39.3 °F 29.1 °F 58% 30.14 in 10.0 mi West 5.8 mph - N/A   Overcast